Time,TemperatureF,DewpointF,PressureIn,WindDirection,WindDirectionDegrees,WindSpeedMPH,WindSpeedGustMPH,Humidity,HourlyPrecipIn,Conditions,Clouds,dailyrainin,SoftwareType,DateUTC
2013-05-20 00:01:00,61.8,56.2,29.85,SW,220,0.0,0.0,82,0.00,,,0.00,Wunderground v.1.15,2013-05-20 07:01:00,
2013-05-20 00:06:00,61.6,56.0,29.85,SW,220,0.0,0.0,82,0.00,,,0.00,Wunderground v.1.15,2013-05-20 07:06:00,
2013-05-20 00:31:00,61.3,56.1,29.85,SW,220,0.0,0.0,83,0.00,,,0.00,Wunderground v.1.15,2013-05-20 07:31:00,
2013-05-20 00:41:00,61.2,56.0,29.85,SW,220,0.0,0.0,83,0.00,,,0.00,Wunderground v.1.15,2013-05-20 07:41:00,
2013-05-20 00:51:00,61.0,56.1,29.84,SW,219,0.0,0.0,84,0.00,,,0.00,Wunderground v.1.15,2013-05-20 07:51:00,
2013-05-20 01:06:00,61.0,56.1,29.84,SW,220,0.0,0.0,84,0.00,,,0.00,Wunderground v.1.15,2013-05-20 08:06:00,
2013-05-20 01:11:00,60.9,56.0,29.84,SW,220,0.0,0.0,84,0.00,,,0.00,Wunderground v.1.15,2013-05-20 08:11:00,
2013-05-20 01:21:00,60.7,56.2,29.85,SW,219,0.0,0.0,85,0.00,,,0.00,Wunderground v.1.15,2013-05-20 08:21:00,
2013-05-20 01:31:00,60.5,56.0,29.84,SW,220,0.0,0.0,85,0.00,,,0.00,Wunderground v.1.15,2013-05-20 08:31:00,
2013-05-20 01:41:00,60.4,55.9,29.84,SW,220,0.0,0.0,85,0.00,,,0.00,Wunderground v.1.15,2013-05-20 08:41:00,
2013-05-20 01:51:00,60.2,55.7,29.85,SW,220,0.0,0.0,85,0.00,,,0.00,Wunderground v.1.15,2013-05-20 08:51:00,
2013-05-20 01:56:00,60.1,55.6,29.85,SW,220,0.0,0.0,85,0.00,,,0.00,Wunderground v.1.15,2013-05-20 08:56:00,
2013-05-20 02:06:00,59.9,55.4,29.84,SW,220,0.0,0.0,85,0.00,,,0.00,Wunderground v.1.15,2013-05-20 09:06:00,
2013-05-20 02:16:00,59.8,55.3,29.84,SW,220,0.0,0.0,85,0.00,,,0.00,Wunderground v.1.15,2013-05-20 09:16:00,
2013-05-20 02:26:00,59.6,55.4,29.84,SW,220,0.0,0.0,86,0.00,,,0.00,Wunderground v.1.15,2013-05-20 09:26:00,
2013-05-20 02:31:00,59.6,55.4,29.84,SW,220,0.0,0.0,86,0.00,,,0.00,Wunderground v.1.15,2013-05-20 09:31:00,
2013-05-20 02:41:00,59.5,55.3,29.84,SW,220,0.0,0.0,86,0.00,,,0.00,Wunderground v.1.15,2013-05-20 09:41:00,
2013-05-20 02:51:00,59.3,55.1,29.84,SW,220,0.0,0.0,86,0.00,,,0.00,Wunderground v.1.15,2013-05-20 09:51:00,
2013-05-20 02:56:00,59.3,55.1,29.84,SW,220,0.0,0.0,86,0.00,,,0.00,Wunderground v.1.15,2013-05-20 09:56:00,
2013-05-20 03:01:00,59.2,55.0,29.84,SW,220,0.0,0.0,86,0.00,,,0.00,Wunderground v.1.15,2013-05-20 10:01:00,
2013-05-20 03:06:00,59.0,54.8,29.84,SW,220,0.0,0.0,86,0.00,,,0.00,Wunderground v.1.15,2013-05-20 10:06:00,
2013-05-20 03:16:00,58.9,54.7,29.83,SW,220,0.0,0.0,86,0.00,,,0.00,Wunderground v.1.15,2013-05-20 10:16:00,
2013-05-20 03:21:00,58.9,54.7,29.83,SW,220,0.0,0.0,86,0.00,,,0.00,Wunderground v.1.15,2013-05-20 10:21:00,
2013-05-20 03:31:00,58.9,54.7,29.84,SW,220,0.0,0.0,86,0.00,,,0.00,Wunderground v.1.15,2013-05-20 10:31:00,
2013-05-20 03:36:00,58.7,54.5,29.84,SW,220,0.0,0.0,86,0.00,,,0.00,Wunderground v.1.15,2013-05-20 10:36:00,
2013-05-20 03:46:00,58.6,54.4,29.84,SW,220,0.0,0.0,86,0.00,,,0.00,Wunderground v.1.15,2013-05-20 10:46:00,
2013-05-20 04:01:00,58.3,54.1,29.84,SW,220,0.0,0.0,86,0.00,,,0.00,Wunderground v.1.15,2013-05-20 11:01:00,
2013-05-20 04:06:00,58.3,54.1,29.84,SW,220,0.0,0.0,86,0.00,,,0.00,Wunderground v.1.15,2013-05-20 11:06:00,
2013-05-20 04:21:00,57.8,53.6,29.85,SW,220,0.0,0.0,86,0.00,,,0.00,Wunderground v.1.15,2013-05-20 11:21:00,
2013-05-20 04:26:00,57.8,54.0,29.85,SW,220,0.0,0.0,87,0.00,,,0.00,Wunderground v.1.15,2013-05-20 11:26:00,
2013-05-20 04:36:00,57.6,53.8,29.85,SW,220,0.0,0.0,87,0.00,,,0.00,Wunderground v.1.15,2013-05-20 11:36:00,
2013-05-20 04:46:00,57.6,53.8,29.84,SW,220,0.0,0.0,87,0.00,,,0.00,Wunderground v.1.15,2013-05-20 11:46:00,
2013-05-20 04:51:00,57.6,53.8,29.84,SW,220,0.0,0.0,87,0.00,,,0.00,Wunderground v.1.15,2013-05-20 11:51:00,
2013-05-20 05:01:00,57.6,53.8,29.84,SW,220,0.0,0.0,87,0.00,,,0.00,Wunderground v.1.15,2013-05-20 12:01:00,
2013-05-20 05:11:00,58.0,54.5,29.84,SW,220,0.0,0.0,88,0.00,,,0.00,Wunderground v.1.15,2013-05-20 12:11:00,
2013-05-20 05:21:00,58.4,54.9,29.85,SW,220,0.0,0.0,88,0.00,,,0.00,Wunderground v.1.15,2013-05-20 12:21:00,
2013-05-20 05:31:00,59.0,55.4,29.85,SW,219,0.0,0.0,88,0.00,,,0.00,Wunderground v.1.15,2013-05-20 12:31:00,
2013-05-20 05:36:00,59.2,55.6,29.85,SW,220,0.0,0.0,88,0.00,,,0.00,Wunderground v.1.15,2013-05-20 12:36:00,
2013-05-20 05:46:00,59.2,56.0,29.85,SW,219,0.0,0.0,89,0.00,,,0.00,Wunderground v.1.15,2013-05-20 12:46:00,
2013-05-20 05:56:00,59.2,56.0,29.85,SW,220,0.0,0.0,89,0.00,,,0.00,Wunderground v.1.15,2013-05-20 12:56:00,
2013-05-20 06:06:00,59.3,56.1,29.86,SW,220,0.0,0.0,89,0.00,,,0.00,Wunderground v.1.15,2013-05-20 13:06:00,
2013-05-20 06:11:00,59.3,56.1,29.86,SW,220,0.0,0.0,89,0.00,,,0.00,Wunderground v.1.15,2013-05-20 13:11:00,
2013-05-20 06:26:00,59.5,56.3,29.86,SW,220,0.0,0.0,89,0.00,,,0.00,Wunderground v.1.15,2013-05-20 13:26:00,
2013-05-20 06:31:00,59.6,56.4,29.86,SW,220,0.0,0.0,89,0.00,,,0.00,Wunderground v.1.15,2013-05-20 13:31:00,
2013-05-20 06:41:00,59.8,56.6,29.86,SW,220,0.0,0.0,89,0.00,,,0.00,Wunderground v.1.15,2013-05-20 13:41:00,
2013-05-20 06:51:00,60.1,56.8,29.86,SW,219,0.0,0.0,89,0.00,,,0.00,Wunderground v.1.15,2013-05-20 13:51:00,
2013-05-20 07:01:00,60.1,56.5,29.86,SW,220,0.0,0.0,88,0.00,,,0.00,Wunderground v.1.15,2013-05-20 14:01:00,
2013-05-20 07:11:00,60.2,56.6,29.86,SW,219,0.0,0.0,88,0.00,,,0.00,Wunderground v.1.15,2013-05-20 14:11:00,
2013-05-20 07:21:00,59.9,56.3,29.87,SW,219,0.0,0.0,88,0.00,,,0.00,Wunderground v.1.15,2013-05-20 14:21:00,
2013-05-20 07:31:00,60.2,56.6,29.87,SW,219,0.0,0.0,88,0.00,,,0.00,Wunderground v.1.15,2013-05-20 14:31:00,
2013-05-20 07:41:00,60.5,56.9,29.87,SW,219,0.0,0.0,88,0.00,,,0.00,Wunderground v.1.15,2013-05-20 14:41:00,
2013-05-20 08:01:00,61.2,57.0,29.88,SW,219,0.0,0.0,86,0.00,,,0.00,Wunderground v.1.15,2013-05-20 15:01:00,
2013-05-20 08:10:00,61.3,57.1,29.88,WSW,237,0.0,0.0,86,0.00,,,0.00,Wunderground v.1.15,2013-05-20 15:10:00,
2013-05-20 08:20:00,62.0,57.4,29.88,WSW,237,0.0,0.0,85,0.00,,,0.00,Wunderground v.1.15,2013-05-20 15:20:00,
2013-05-20 08:26:00,62.1,57.5,29.88,WSW,237,0.0,0.0,85,0.00,,,0.00,Wunderground v.1.15,2013-05-20 15:26:00,
2013-05-20 08:41:00,62.4,57.5,29.88,WNW,292,0.0,0.0,84,0.00,,,0.00,Wunderground v.1.15,2013-05-20 15:41:00,
2013-05-20 08:51:00,62.7,57.5,29.88,WNW,292,0.0,0.0,83,0.00,,,0.00,Wunderground v.1.15,2013-05-20 15:51:00,
2013-05-20 09:01:00,63.5,57.6,29.88,WNW,292,0.0,0.0,81,0.00,,,0.00,Wunderground v.1.15,2013-05-20 16:01:00,
2013-05-20 09:06:00,64.2,57.9,29.88,West,274,0.0,0.0,80,0.00,,,0.00,Wunderground v.1.15,2013-05-20 16:06:00,
2013-05-20 09:11:00,64.3,57.6,29.88,West,275,1.0,2.0,79,0.00,,,0.00,Wunderground v.1.15,2013-05-20 16:11:00,
2013-05-20 09:16:00,64.5,57.8,29.88,West,270,1.0,2.0,79,0.00,,,0.00,Wunderground v.1.15,2013-05-20 16:16:00,
2013-05-20 09:26:00,64.7,57.7,29.88,WSW,240,0.0,1.0,78,0.00,,,0.00,Wunderground v.1.15,2013-05-20 16:26:00,
2013-05-20 09:36:00,65.3,57.9,29.88,WSW,257,1.0,1.0,77,0.00,,,0.00,Wunderground v.1.15,2013-05-20 16:36:00,
2013-05-20 09:46:00,65.6,57.8,29.87,WSW,253,0.0,2.0,76,0.00,,,0.00,Wunderground v.1.15,2013-05-20 16:46:00,
2013-05-20 09:56:00,66.6,57.3,29.87,West,268,1.0,1.0,72,0.00,,,0.00,Wunderground v.1.15,2013-05-20 16:56:00,
2013-05-20 10:11:00,68.3,57.7,29.87,West,268,0.0,0.0,69,0.00,,,0.00,Wunderground v.1.15,2013-05-20 17:11:00,
2013-05-20 10:16:00,68.9,57.9,29.87,WSW,243,0.0,0.0,68,0.00,,,0.00,Wunderground v.1.15,2013-05-20 17:16:00,
2013-05-20 10:26:00,70.4,57.6,29.87,WSW,243,0.0,0.0,64,0.00,,,0.00,Wunderground v.1.15,2013-05-20 17:26:00,
2013-05-20 10:31:00,71.3,58.1,29.87,SW,215,0.0,1.0,63,0.00,,,0.00,Wunderground v.1.15,2013-05-20 17:31:00,
2013-05-20 10:41:00,71.5,58.7,29.87,West,261,1.0,1.0,64,0.00,,,0.00,Wunderground v.1.15,2013-05-20 17:41:00,
2013-05-20 10:51:00,72.5,58.7,29.87,West,260,0.0,1.0,62,0.00,,,0.00,Wunderground v.1.15,2013-05-20 17:51:00,
2013-05-20 11:01:00,73.9,58.7,29.86,WSW,241,0.0,0.0,59,0.00,,,0.00,Wunderground v.1.15,2013-05-20 18:01:00,
2013-05-20 11:16:00,76.1,58.2,29.86,WNW,285,0.0,0.0,54,0.00,,,0.00,Wunderground v.1.15,2013-05-20 18:16:00,
2013-05-20 11:21:00,76.7,58.3,29.86,WNW,284,0.0,0.0,53,0.00,,,0.00,Wunderground v.1.15,2013-05-20 18:21:00,
2013-05-20 11:31:00,77.6,58.0,29.86,NW,318,0.0,0.0,51,0.00,,,0.00,Wunderground v.1.15,2013-05-20 18:31:00,
2013-05-20 11:41:00,77.9,58.3,29.86,WNW,299,0.0,0.0,51,0.00,,,0.00,Wunderground v.1.15,2013-05-20 18:41:00,
2013-05-20 11:51:00,78.8,57.4,29.86,NW,313,0.0,0.0,48,0.00,,,0.00,Wunderground v.1.15,2013-05-20 18:51:00,
2013-05-20 12:06:00,79.6,58.2,29.85,WNW,291,1.0,1.0,48,0.00,,,0.00,Wunderground v.1.15,2013-05-20 19:06:00,
2013-05-20 12:16:00,80.5,57.8,29.85,SW,236,0.0,0.0,46,0.00,,,0.00,Wunderground v.1.15,2013-05-20 19:16:00,
2013-05-20 12:21:00,81.1,57.7,29.85,WNW,285,0.0,0.0,45,0.00,,,0.00,Wunderground v.1.15,2013-05-20 19:21:00,
2013-05-20 12:26:00,81.4,57.4,29.85,WSW,256,1.0,1.0,44,0.00,,,0.00,Wunderground v.1.15,2013-05-20 19:26:00,
2013-05-20 12:41:00,81.8,57.8,29.85,West,263,1.0,1.0,44,0.00,,,0.00,Wunderground v.1.15,2013-05-20 19:41:00,
2013-05-20 12:51:00,83.6,58.1,29.84,WNW,298,0.0,1.0,42,0.00,,,0.00,Wunderground v.1.15,2013-05-20 19:51:00,
2013-05-20 12:56:00,84.5,57.5,29.84,SSW,213,1.0,2.0,40,0.00,,,0.00,Wunderground v.1.15,2013-05-20 19:56:00,
2013-05-20 13:06:00,84.7,57.7,29.84,WNW,287,0.0,0.0,40,0.00,,,0.00,Wunderground v.1.15,2013-05-20 20:06:00,
2013-05-20 13:16:00,84.7,57.7,29.84,WSW,254,1.0,1.0,40,0.00,,,0.00,Wunderground v.1.15,2013-05-20 20:16:00,
2013-05-20 13:36:00,84.9,58.6,29.84,WNW,288,1.0,1.0,41,0.00,,,0.00,Wunderground v.1.15,2013-05-20 20:36:00,
2013-05-20 13:46:00,84.7,58.4,29.84,WSW,254,1.0,1.0,41,0.00,,,0.00,Wunderground v.1.15,2013-05-20 20:46:00,
2013-05-20 13:56:00,84.9,58.6,29.84,West,281,1.0,1.0,41,0.00,,,0.00,Wunderground v.1.15,2013-05-20 20:56:00,
2013-05-20 14:01:00,85.1,58.1,29.84,West,263,1.0,1.0,40,0.00,,,0.00,Wunderground v.1.15,2013-05-20 21:01:00,
2013-05-20 14:11:00,84.7,59.1,29.84,WSW,250,1.0,2.0,42,0.00,,,0.00,Wunderground v.1.15,2013-05-20 21:11:00,
2013-05-20 14:26:00,84.5,58.2,29.83,NW,319,2.0,2.0,41,0.00,,,0.00,Wunderground v.1.15,2013-05-20 21:26:00,
2013-05-20 14:31:00,84.7,57.0,29.83,West,280,1.0,2.0,39,0.00,,,0.00,Wunderground v.1.15,2013-05-20 21:31:00,
2013-05-20 14:41:00,85.7,57.2,29.83,WSW,243,1.0,1.0,38,0.00,,,0.00,Wunderground v.1.15,2013-05-20 21:41:00,
2013-05-20 14:51:00,86.3,56.2,29.83,NW,311,0.0,0.0,36,0.00,,,0.00,Wunderground v.1.15,2013-05-20 21:51:00,
2013-05-20 15:01:00,85.9,58.1,29.83,WNW,296,1.0,1.0,39,0.00,,,0.00,Wunderground v.1.15,2013-05-20 22:01:00,
2013-05-20 15:11:00,85.9,56.6,29.83,West,267,1.0,3.0,37,0.00,,,0.00,Wunderground v.1.15,2013-05-20 22:11:00,
2013-05-20 15:21:00,86.1,55.2,29.83,WNW,291,1.0,2.0,35,0.00,,,0.00,Wunderground v.1.15,2013-05-20 22:21:00,
2013-05-20 15:31:00,85.9,55.1,29.83,West,261,1.0,1.0,35,0.00,,,0.00,Wunderground v.1.15,2013-05-20 22:31:00,
2013-05-20 15:41:00,85.7,54.9,29.83,NW,311,1.0,1.0,35,0.00,,,0.00,Wunderground v.1.15,2013-05-20 22:41:00,
2013-05-20 15:46:00,85.9,55.8,29.83,WNW,299,1.0,1.0,36,0.00,,,0.00,Wunderground v.1.15,2013-05-20 22:46:00,
2013-05-20 16:01:00,85.5,55.5,29.82,WSW,244,1.0,1.0,36,0.00,,,0.00,Wunderground v.1.15,2013-05-20 23:01:00,
2013-05-20 16:16:00,82.4,57.7,29.82,West,268,2.0,4.0,43,0.00,,,0.00,Wunderground v.1.15,2013-05-20 23:16:00,
2013-05-20 16:26:00,81.2,56.6,29.82,SSW,209,2.0,2.0,43,0.00,,,0.00,Wunderground v.1.15,2013-05-20 23:26:00,
2013-05-20 16:36:00,80.9,58.8,29.82,SSW,208,2.0,2.0,47,0.00,,,0.00,Wunderground v.1.15,2013-05-20 23:36:00,
2013-05-20 16:51:00,80.9,57.6,29.82,SSW,210,0.0,3.0,45,0.00,,,0.00,Wunderground v.1.15,2013-05-20 23:51:00,
2013-05-20 17:01:00,79.6,58.2,29.82,SSW,206,1.0,1.0,48,0.00,,,0.00,Wunderground v.1.15,2013-05-21 00:01:00,
2013-05-20 17:16:00,77.2,58.2,29.82,SSW,205,0.0,0.0,52,0.00,,,0.00,Wunderground v.1.15,2013-05-21 00:16:00,
2013-05-20 17:26:00,76.1,58.8,29.82,SSW,206,0.0,0.0,55,0.00,,,0.00,Wunderground v.1.15,2013-05-21 00:26:00,
2013-05-20 17:36:00,74.9,58.6,29.82,SSW,206,0.0,0.0,57,0.00,,,0.00,Wunderground v.1.15,2013-05-21 00:36:00,
2013-05-20 17:56:00,73.9,58.7,29.82,SW,215,0.0,0.0,59,0.00,,,0.00,Wunderground v.1.15,2013-05-21 00:56:00,
2013-05-20 18:01:00,73.2,58.5,29.82,West,277,1.0,2.0,60,0.00,,,0.00,Wunderground v.1.15,2013-05-21 01:01:00,
2013-05-20 18:06:00,72.8,58.6,29.82,SSW,206,1.0,2.0,61,0.00,,,0.00,Wunderground v.1.15,2013-05-21 01:06:00,
2013-05-20 18:16:00,72.0,58.7,29.82,SW,229,1.0,1.0,63,0.00,,,0.00,Wunderground v.1.15,2013-05-21 01:16:00,
2013-05-20 18:21:00,72.0,59.2,29.82,West,277,0.0,1.0,64,0.00,,,0.00,Wunderground v.1.15,2013-05-21 01:21:00,
2013-05-20 18:31:00,71.1,58.7,29.82,SSW,210,1.0,3.0,65,0.00,,,0.00,Wunderground v.1.15,2013-05-21 01:31:00,
2013-05-20 18:36:00,70.8,58.9,29.82,SSW,203,0.0,3.0,66,0.00,,,0.00,Wunderground v.1.15,2013-05-21 01:36:00,
2013-05-20 18:46:00,70.6,58.7,29.82,SW,215,0.0,1.0,66,0.00,,,0.00,Wunderground v.1.15,2013-05-21 01:46:00,
2013-05-20 18:56:00,70.1,58.6,29.82,SW,215,0.0,0.0,67,0.00,,,0.00,Wunderground v.1.15,2013-05-21 01:56:00,
2013-05-20 19:01:00,70.1,58.6,29.82,SW,215,0.0,0.0,67,0.00,,,0.00,Wunderground v.1.15,2013-05-21 02:01:00,
2013-05-20 19:11:00,69.4,58.4,29.82,SW,215,0.0,0.0,68,0.00,,,0.00,Wunderground v.1.15,2013-05-21 02:11:00,
2013-05-20 19:21:00,69.3,58.7,29.82,SW,215,0.0,0.0,69,0.00,,,0.00,Wunderground v.1.15,2013-05-21 02:21:00,
2013-05-20 19:31:00,68.6,58.0,29.82,SW,215,0.0,0.0,69,0.00,,,0.00,Wunderground v.1.15,2013-05-21 02:31:00,
2013-05-20 19:46:00,67.4,58.1,29.82,SSW,208,0.0,0.0,72,0.00,,,0.00,Wunderground v.1.15,2013-05-21 02:46:00,
2013-05-20 20:01:00,66.3,58.1,29.83,SSW,212,0.0,0.0,75,0.00,,,0.00,Wunderground v.1.15,2013-05-21 03:01:00,
2013-05-20 20:26:00,65.0,58.7,29.84,SW,219,0.0,0.0,80,0.00,,,0.00,Wunderground v.1.15,2013-05-21 03:26:00,
2013-05-20 20:35:00,64.8,58.5,29.84,SW,219,0.0,0.0,80,0.00,,,0.00,Wunderground v.1.15,2013-05-21 03:35:00,
2013-05-20 20:50:00,64.7,58.7,29.85,SW,219,0.0,0.0,81,0.00,,,0.00,Wunderground v.1.15,2013-05-21 03:50:00,
2013-05-20 20:56:00,64.5,58.5,29.85,SW,219,0.0,0.0,81,0.00,,,0.00,Wunderground v.1.15,2013-05-21 03:56:00,
2013-05-20 21:01:00,64.5,58.5,29.85,SW,219,0.0,0.0,81,0.00,,,0.00,Wunderground v.1.15,2013-05-21 04:01:00,
2013-05-20 21:11:00,64.3,58.3,29.85,SW,219,0.0,0.0,81,0.00,,,0.00,Wunderground v.1.15,2013-05-21 04:11:00,
2013-05-20 21:20:00,64.2,58.2,29.85,SW,219,0.0,0.0,81,0.00,,,0.00,Wunderground v.1.15,2013-05-21 04:20:00,
2013-05-20 21:25:00,64.0,58.4,29.85,SW,219,0.0,0.0,82,0.00,,,0.00,Wunderground v.1.15,2013-05-21 04:25:00,
2013-05-20 21:30:00,64.0,58.4,29.85,SW,219,0.0,0.0,82,0.00,,,0.00,Wunderground v.1.15,2013-05-21 04:30:00,
2013-05-20 21:36:00,63.9,58.3,29.85,SW,219,0.0,0.0,82,0.00,,,0.00,Wunderground v.1.15,2013-05-21 04:36:00,
2013-05-20 21:51:00,63.7,58.1,29.86,SW,219,0.0,0.0,82,0.00,,,0.00,Wunderground v.1.15,2013-05-21 04:51:00,
2013-05-20 22:01:00,63.7,58.1,29.86,SW,219,0.0,0.0,82,0.00,,,0.00,Wunderground v.1.15,2013-05-21 05:01:00,
2013-05-20 22:11:00,63.5,58.2,29.86,SW,219,0.0,0.0,83,0.00,,,0.00,Wunderground v.1.15,2013-05-21 05:11:00,
2013-05-20 22:26:00,63.4,58.1,29.85,SW,219,0.0,0.0,83,0.00,,,0.00,Wunderground v.1.15,2013-05-21 05:26:00,
2013-05-20 22:36:00,63.2,57.9,29.85,SW,219,0.0,0.0,83,0.00,,,0.00,Wunderground v.1.15,2013-05-21 05:36:00,
2013-05-20 22:45:00,63.1,58.2,29.85,SW,219,0.0,0.0,84,0.00,,,0.00,Wunderground v.1.15,2013-05-21 05:45:00,
2013-05-20 22:51:00,63.1,58.2,29.85,SW,219,0.0,0.0,84,0.00,,,0.00,Wunderground v.1.15,2013-05-21 05:51:00,
2013-05-20 22:56:00,62.9,58.0,29.85,SW,219,0.0,0.0,84,0.00,,,0.00,Wunderground v.1.15,2013-05-21 05:56:00,
2013-05-20 23:06:00,62.7,57.8,29.85,SW,219,0.0,0.0,84,0.00,,,0.00,Wunderground v.1.15,2013-05-21 06:06:00,
2013-05-20 23:16:00,62.6,57.7,29.86,SW,219,0.0,0.0,84,0.00,,,0.00,Wunderground v.1.15,2013-05-21 06:16:00,
2013-05-20 23:21:00,62.4,57.5,29.86,SW,219,0.0,0.0,84,0.00,,,0.00,Wunderground v.1.15,2013-05-21 06:21:00,
2013-05-20 23:36:00,62.3,57.7,29.86,SW,219,0.0,0.0,85,0.00,,,0.00,Wunderground v.1.15,2013-05-21 06:36:00,
2013-05-20 23:41:00,62.3,57.7,29.86,SW,219,0.0,0.0,85,0.00,,,0.00,Wunderground v.1.15,2013-05-21 06:41:00,